This demonstration page uses our WeatherBlox Daily Observations layout. Learn more.

Left ArrowRight Arrow

Hourly Observations for December 22, 2019

Temp ( °F °C ) Dew Point ( °F °C ) Humidity (%) Winds ( mph kmh ) Pressure ( in mb ) Visibility ( mi km ) Precip ( " mm )
12:52 am 00:52 Mostly Cloudy 31 -0.6 29 -1.7 92 92 SSE 12 19 30.18 1022 10 16 0.00 0.00
1:52 am 01:52 Mostly Cloudy 31 -0.6 29 -1.7 92 92 SSE 12 19 30.16 1022 8 13 0.00 0.00
2:52 am 02:52 Partly Cloudy 31 -0.6 29 -1.7 92 92 SE 12 19 30.16 1022 7 11 0.00 0.00
3:52 am 03:52 Clear 29 -1.7 27 -2.8 92 92 SE 10 17 30.16 1021 7 11 0.00 0.00
4:52 am 04:52 Mostly Clear 30 -1.1 27 -2.8 88 88 SSE 13 20 30.14 1021 8 13 0.00 0.00
5:52 am 05:52 Clear 30 -1.1 27 -2.8 88 88 SSE 12 19 30.13 1020 9 14 0.00 0.00
6:52 am 06:52 Mostly Clear 30 -1.1 27 -2.8 88 88 SSE 13 20 30.14 1021 9 14 0.00 0.00
7:52 am 07:52 Mostly Cloudy 29 -1.7 26 -3.3 89 89 SSE 12 19 30.14 1021 9 14 0.00 0.00
8:52 am 08:52 Mostly Cloudy 33 0.6 29 -1.7 85 85 SSE 14 22 30.13 1020 10 16 0.00 0.00
9:52 am 09:52 Cloudy 38 3.3 30 -1.1 73 73 SSE 10 17 30.14 1021 10 16 0.00 0.00
10:52 am 10:52 Cloudy 42 5.6 30 -1.1 62 62 S 13 20 30.13 1020 10 16 0.00 0.00
11:52 am 11:52 Cloudy 45 7.2 31 -0.6 58 58 S 12 19 30.10 1019 10 16 0.00 0.00
12:52 pm 12:52 Cloudy 48 8.9 31 -0.6 52 52 S 10 17 30.07 1018 10 16 0.00 0.00
1:52 pm 13:52 Mostly Cloudy 51 10.6 31 -0.6 46 46 S 12 19 30.04 1017 10 16 0.00 0.00
2:52 pm 14:52 Mostly Cloudy 53 11.7 30 -1.1 41 41 S 13 20 30.03 1017 10 16 0.00 0.00
3:52 pm 15:52 Mostly Cloudy 51 10.6 32 0 48 48 SSE 13 20 30.03 1017 10 16 0.00 0.00
4:52 pm 16:52 Mostly Cloudy 46 7.8 34 1.1 63 63 SSE 13 20 30.03 1017 10 16 0.00 0.00
5:52 pm 17:52 Mostly Cloudy 43 6.1 34 1.1 71 71 SSE 10 17 30.03 1017 10 16 0.00 0.00
6:52 pm 18:52 Mostly Cloudy 42 5.6 33 0.6 71 71 SSE 12 19 30.03 1017 10 16 0.00 0.00
7:52 pm 19:52 Mostly Cloudy 39 3.9 31 -0.6 73 73 SSE 10 17 30.04 1017 10 16 0.00 0.00
8:52 pm 20:52 Cloudy 36 2.2 30 -1.1 79 79 SSE 12 19 30.04 1017 10 16 0.00 0.00
9:52 pm 21:52 Cloudy 37 2.8 31 -0.6 79 79 SSE 13 20 30.02 1017 10 16 0.00 0.00
10:52 pm 22:52 Partly Cloudy 34 1.1 30 -1.1 85 85 SSE 12 19 30.03 1017 10 16 0.00 0.00
11:52 pm 23:52 Partly Cloudy 33 0.6 30 -1.1 89 89 SE 10 17 30.03 1017 10 16 0.00 0.00

Powered by AerisWeather